Regional Weather Roundup
Issued by NWS Sioux Falls, SD

Home | Current Version | Previous Version | Text Only | Print | Product List | Glossary On
Versions: 1 2 3 4 5 6 7 8 9 10 11 12 13 14 15 16 17 18 19 20 21 22 23 24 25 26 27 28 29 30 31 32 33 34 35 36 37 38 39 40 41 42 43 44 45 46 47 48 49 50
000
ASUS43 KFSD 200910
RWRFSD

WEATHER ROUNDUP FOR SE SOUTH DAKOTA/SW MINNESOTA/NW IOWA
NATIONAL WEATHER SERVICE SIOUX FALLS SD
400 AM CDT WED SEP 20 2017

NOTE: "FAIR" INDICATES FEW OR NO CLOUDS BELOW 12,000 FEET WITH NO
SIGNIFICANT WEATHER AND OR OBSTRUCTIONS TO VISIBILITY.


SDZ038>040-050-052>070-201000-
SOUTHEAST SOUTH DAKOTA

CITY           SKY/WX    TMP DP  RH WIND       PRES   REMARKS
BROOKINGS      CLOUDY    59  54  83 W10       29.66R
CHAMBERLAIN    PTCLDY    53  52  97 SW3       29.76R
HURON          MOCLDY    53  50  89 W9        29.70R
MADISON        CLOUDY    59  59 100 W12       29.69R
MITCHELL       PTCLDY    57  53  86 NW10      29.72R
SIOUX FALLS    CLOUDY    63  61  93 W5        29.68R
WINNER         FAIR      52  48  86 SW6       29.79R
YANKTON        CLOUDY    61  57  87 SW5       29.71R
$$

MNZ071-072-080-081-089-090-097-098-201000-
SOUTHWEST MINNESOTA

CITY           SKY/WX    TMP DP  RH WIND       PRES   REMARKS
FAIRMONT       MOCLDY    68  63  84 W6        29.65R
JACKSON        CLOUDY    61  59  94 CALM      29.66S
LUVERNE        CLOUDY    59  55  88 CALM      29.65S
MARSHALL       CLOUDY    61  56  83 SW7       29.60F
MONTEVIDEO     CLEAR     61  57  88 W5        29.57S
PIPESTONE      CLOUDY    64  55  72 CALM      29.64R
REDWOOD FALLS  CLOUDY    64  60  87 SW3       29.59S
TRACY          CLOUDY    62  59  90 SW5       29.62F
WORTHINGTON    CLOUDY    61  58  90 CALM      29.66F
$$

IAZ001>003-012>014-020>022-031-032-NEZ013-014-SDZ071-201000-
NORTHWEST IOWA

CITY           SKY/WX    TMP DP  RH WIND       PRES   REMARKS
CHEROKEE       CLOUDY    62  60  95 CALM      29.68S
DENISON        MOCLDY    73  66  78 NW12G20   29.68R
ESTHERVILLE    CLOUDY    63  63 100 W3        29.65S
LE MARS        CLOUDY    61  59  94 CALM      29.67F
ORANGE CITY    MOCLDY    63  61  94 S5        29.67F
SHELDON        CLOUDY    61  59  94 CALM      29.65S
SIOUX CITY     MOCLDY    63  58  83 N3        29.68F
SPENCER        CLOUDY    61  59  93 CALM      29.67S
STORM LAKE     CLOUDY    64  57  77 N10       29.68F
$$

ABBREVIATIONS USED IN REMARKS
   TC - TEMPERATURE IN CELSIUS
  WCI - WIND CHILL INDEX
   HX - HEAT INDEX
  VSB - VISIBILITY





USA.gov is the U.S. government's official web portal to all federal, state and local government web resources and services.